Location: Grasslands National Park East Block
(49.0708°N, 106.5295°W)
Time: 17:39:40
(UTC-06:00)

Vanguard 3 - All Passes

Search period start: 17 September 2019 00:00
Search period end: 27 September 2019 00:00
Orbit: 508 x 3263 km, 33.4° (Epoch: 14 September)

Date Brightness Start Highest point End Pass type
(mag) Time Alt. Az. Time Alt. Az. Time Alt. Az.
17 Sep - 08:28:36 10° SSW 08:41:40 28° SE 08:56:28 10° E daylight
17 Sep - 10:38:24 10° SW 10:55:21 44° SSE 11:12:19 10° ESE daylight
17 Sep - 12:51:56 10° WSW 13:10:08 47° S 13:25:16 10° ESE daylight
17 Sep - 15:08:12 10° W 15:23:37 32° SSW 15:35:18 10° SSE daylight
17 Sep - 17:31:42 10° WSW 17:34:32 11° SW 17:37:12 10° SW daylight
18 Sep - 07:17:29 10° S 07:26:56 18° SE 07:37:48 10° E daylight
18 Sep - 09:24:17 10° SW 09:39:25 38° SSE 09:56:19 10° E daylight
18 Sep - 11:36:10 10° WSW 11:53:57 48° S 12:10:40 10° ESE daylight
18 Sep - 13:50:59 10° W 14:08:25 41° SSW 14:22:21 10° SE daylight
18 Sep - 16:09:08 10° W 16:20:43 21° SW 16:29:58 10° S daylight
19 Sep - 08:11:19 10° SSW 08:24:03 30° SE 08:39:18 10° E daylight
19 Sep - 10:21:15 10° SW 10:37:43 46° SSE 10:55:17 10° ESE daylight
19 Sep - 12:34:37 10° WSW 12:52:33 46° S 13:08:27 10° SE daylight
19 Sep - 14:50:44 10° W 15:06:10 31° SW 15:18:26 10° SSE daylight
20 Sep - 06:59:56 10° S 07:09:24 20° SE 07:20:49 10° E daylight
20 Sep - 09:07:14 10° SW 09:21:48 40° SSE 09:39:05 10° E daylight
20 Sep - 11:19:02 10° WSW 11:36:20 48° S 11:53:41 10° ESE daylight
20 Sep - 13:33:37 10° W 13:50:51 39° SSW 14:05:29 10° SE daylight
20 Sep - 15:51:57 10° W 16:03:15 19° SW 16:12:41 10° S daylight
21 Sep - 07:54:16 10° SSW 08:06:30 31° SE 08:21:58 10° E daylight
21 Sep - 10:04:17 10° SW 10:20:06 46° S 10:38:06 10° ESE daylight
21 Sep - 12:17:26 10° WSW 12:34:56 45° SSW 12:51:28 10° SE daylight
21 Sep - 14:33:25 10° W 14:48:36 29° SW 15:01:22 10° SSE daylight
22 Sep - 06:42:41 10° S 06:51:57 21° SE 07:03:36 10° E daylight
22 Sep - 08:50:23 10° SW 09:04:14 41° SSE 09:21:42 10° E daylight
22 Sep - 11:02:04 10° WSW 11:18:42 48° S 11:36:31 10° ESE daylight
22 Sep - 13:16:25 10° W 13:33:14 38° SSW 13:48:24 10° SE daylight
22 Sep - 15:35:01 10° W 15:45:43 18° SW 15:55:03 10° SSW daylight
23 Sep - 05:35:05 10° SE 05:38:08 11° SE 05:41:25 10° ESE visible
23 Sep - 07:37:26 10° SSW 07:49:02 32° SSE 08:04:29 10° E daylight
23 Sep - 09:47:28 10° WSW 10:02:32 47° S 10:20:45 10° ESE daylight
23 Sep - 12:00:25 10° WSW 12:17:18 44° SSW 12:34:17 10° SE daylight
23 Sep - 14:16:17 10° W 14:30:59 27° SW 14:44:01 10° SSE daylight
24 Sep - 06:25:44 10° S 06:34:35 22° SE 06:46:13 10° E visible
24 Sep - 08:33:42 10° SW 08:46:46 41° SSE 09:04:11 10° E daylight
24 Sep - 10:45:15 10° WSW 11:01:07 47° S 11:19:12 10° ESE daylight
24 Sep - 12:59:23 10° W 13:15:34 36° SSW 13:31:06 10° SSE daylight
24 Sep - 15:18:24 10° WSW 15:28:07 16° SW 15:37:00 10° SSW daylight
25 Sep - 05:17:07 10° SE 05:20:53 12° SE 05:25:09 10° ESE visible
25 Sep - 07:20:47 10° SSW 07:31:41 33° SSE 07:46:53 10° E daylight
25 Sep - 09:30:50 10° WSW 09:45:03 46° S 10:03:15 10° ESE daylight
25 Sep - 11:43:34 10° W 11:59:40 42° SSW 12:16:54 10° SE daylight
25 Sep - 13:59:22 10° W 14:13:19 25° SW 14:26:24 10° S daylight
26 Sep - 06:08:59 10° S 06:17:21 23° SE 06:28:44 10° E visible
26 Sep - 08:17:11 10° SW 08:29:25 42° SSE 08:46:32 10° ESE daylight
26 Sep - 10:28:35 10° WSW 10:43:35 46° S 11:01:42 10° ESE daylight
26 Sep - 12:42:31 10° W 12:57:54 34° SSW 13:13:33 10° SSE daylight
26 Sep - 15:02:17 10° WSW 15:10:30 14° SW 15:18:19 10° SSW daylight
